Location: Les Thiberg�res
(47.8554°N, 1.0978°W)
Time: 19:06:43
(UTC+00:00)

STARLINK-1169 - Pass Details

Date: 17 February 2020
Orbit: 553 x 556 km, 53.0° (Epoch: 06 April)

Event Time Altitude Azimuth Distance (km) Brightness Sun altitude
Exits shadow 06:28:46 - 297° (WNW) 1,977 5.8 -7.3°
Maximum altitude 06:33:11 48° 13° (NNE) 735 4.3 -6.5°
Drops below altitude 10° 06:37:14 10° 89° (E) 1,836 7.9 -5.9°
Sets 06:39:32 0° 95° (E) 2,730 9.7 -5.5°
